{"data":{"norad_id":56016,"intl_designator":"2023-042AG","name":"STARLINK-5943","alt_names":[],"object_type":"PAYLOAD","status":"ACTIVE","operator":null,"country":"US","launch_date":"2023-03-24","launch_site_code":"AFETR","launch_vehicle":null,"mission":null,"orbit_class":"UNKNOWN","rcs_meters":null,"size_class":null,"mass_kg":null,"dimensions":null,"purposes":["comms"],"wikipedia_slug":null,"has_3d_model":false,"image_url":null,"decayed_at":null,"tle_current":{"epoch":"2026-09-20T19:32:59.389728Z","epoch_age_seconds":78982,"freshness":"FRESH","line1":"1 56016U 23042AG  26263.81457627  .00000094  00000+0  12948-4 0  9998","line2":"2 56016  43.0035  23.5738 0001532 263.8668  96.2009 15.27577963192878","mean_motion":15.27577963,"eccentricity":0.0001532,"inclination_deg":43.0035,"raan_deg":23.5738,"arg_perigee_deg":263.8668,"mean_anomaly_deg":96.2009,"bstar":1.2948e-5,"rev_number":19287,"period_min":94.266874416805,"perigee_km":482.00406091288,"apogee_km":484.1063302016,"semimajor_km":6861.1921955572,"source":"CELESTRAK","updated_at":"2026-09-21T09:00:33.355417Z"}}}